Time,TemperatureF,DewpointF,PressureIn,WindDirection,WindDirectionDegrees,WindSpeedMPH,WindSpeedGustMPH,Humidity,HourlyPrecipIn,Conditions,Clouds,dailyrainin,SolarRadiationWatts/m^2,SoftwareType,DateUTC
2013-08-26 00:12:00,60.0,60.0,-100.00,East,97,3.0,10.0,99,0.12,,,0.52,0.000000,,2013-08-26 06:12:00,
2013-08-26 00:21:00,60.0,60.0,-100.00,East,97,3.0,10.0,99,0.12,,,0.52,0.000000,,2013-08-26 06:21:00,
2013-08-26 00:32:00,60.0,60.0,-100.00,East,97,3.0,10.0,99,0.12,,,0.52,0.000000,,2013-08-26 06:32:00,
2013-08-26 00:42:00,60.0,60.0,-100.00,East,97,3.0,10.0,99,0.12,,,0.52,0.000000,,2013-08-26 06:42:00,
2013-08-26 01:11:00,58.0,57.0,-100.00,ENE,72,3.0,7.0,98,0.19,,,0.71,0.000000,,2013-08-26 07:11:00,
2013-08-26 01:21:00,58.0,57.0,-100.00,ENE,72,3.0,7.0,98,0.19,,,0.71,0.000000,,2013-08-26 07:21:00,
2013-08-26 01:32:00,58.0,57.0,-100.00,ENE,72,3.0,7.0,98,0.19,,,0.71,0.000000,,2013-08-26 07:32:00,
2013-08-26 01:42:00,58.0,57.0,-100.00,ENE,72,3.0,7.0,98,0.19,,,0.71,0.000000,,2013-08-26 07:42:00,
2013-08-26 02:11:00,57.0,57.0,-100.00,East,100,4.0,7.0,99,0.12,,,0.81,0.000000,,2013-08-26 08:11:00,
2013-08-26 02:22:00,57.0,57.0,-100.00,East,100,4.0,7.0,99,0.12,,,0.81,0.000000,,2013-08-26 08:22:00,
2013-08-26 02:31:00,57.0,57.0,-100.00,East,100,4.0,7.0,99,0.12,,,0.81,0.000000,,2013-08-26 08:31:00,
2013-08-26 02:42:00,57.0,57.0,-100.00,East,100,4.0,7.0,99,0.12,,,0.81,0.000000,,2013-08-26 08:42:00,
2013-08-26 03:11:00,59.0,57.0,-100.00,ENE,78,5.0,7.0,94,0.01,,,0.82,0.000000,,2013-08-26 09:11:00,
2013-08-26 03:21:00,59.0,57.0,-100.00,ENE,78,5.0,7.0,94,0.01,,,0.82,0.000000,,2013-08-26 09:21:00,
2013-08-26 03:33:00,59.0,57.0,-100.00,ENE,78,5.0,7.0,94,0.01,,,0.82,0.000000,,2013-08-26 09:33:00,
2013-08-26 03:43:00,59.0,57.0,-100.00,ENE,78,5.0,7.0,94,0.01,,,0.82,0.000000,,2013-08-26 09:43:00,
2013-08-26 04:12:00,59.0,56.0,-100.00,ESE,108,5.0,10.0,89,0.00,,,0.82,0.000000,,2013-08-26 10:12:00,
2013-08-26 04:23:00,59.0,56.0,-100.00,ESE,108,5.0,10.0,89,0.00,,,0.82,0.000000,,2013-08-26 10:23:00,
2013-08-26 04:32:00,59.0,56.0,-100.00,ESE,108,5.0,10.0,89,0.00,,,0.82,0.000000,,2013-08-26 10:32:00,
2013-08-26 04:42:00,59.0,56.0,-100.00,ESE,108,5.0,10.0,89,0.00,,,0.82,0.000000,,2013-08-26 10:42:00,
2013-08-26 05:12:00,59.0,56.0,-100.00,East,83,4.0,10.0,90,0.00,,,0.82,0.000000,,2013-08-26 11:12:00,
2013-08-26 05:22:00,59.0,56.0,-100.00,East,83,4.0,10.0,90,0.00,,,0.82,0.000000,,2013-08-26 11:22:00,
2013-08-26 05:33:00,59.0,56.0,-100.00,East,83,4.0,10.0,90,0.00,,,0.82,0.000000,,2013-08-26 11:33:00,
2013-08-26 05:42:00,59.0,56.0,-100.00,East,83,4.0,10.0,90,0.00,,,0.82,0.000000,,2013-08-26 11:42:00,
2013-08-26 06:12:00,59.0,58.0,-100.00,East,91,3.0,8.0,96,0.01,,,0.83,0.000000,,2013-08-26 12:12:00,
2013-08-26 06:21:00,59.0,58.0,-100.00,East,91,3.0,8.0,96,0.01,,,0.83,0.000000,,2013-08-26 12:21:00,
2013-08-26 06:32:00,59.0,58.0,-100.00,East,91,3.0,8.0,96,0.01,,,0.83,0.000000,,2013-08-26 12:32:00,
2013-08-26 06:42:00,59.0,58.0,-100.00,East,91,3.0,8.0,96,0.01,,,0.83,0.000000,,2013-08-26 12:42:00,
2013-08-26 07:11:00,57.0,56.0,-100.00,East,83,1.0,7.0,97,0.04,,,0.87,0.000000,,2013-08-26 13:11:00,
2013-08-26 07:21:00,57.0,56.0,-100.00,East,83,1.0,7.0,97,0.04,,,0.87,0.000000,,2013-08-26 13:21:00,
2013-08-26 07:32:00,57.0,56.0,-100.00,East,83,1.0,7.0,97,0.04,,,0.87,0.000000,,2013-08-26 13:32:00,
2013-08-26 07:42:00,57.0,56.0,-100.00,East,83,1.0,7.0,97,0.04,,,0.87,0.000000,,2013-08-26 13:42:00,
2013-08-26 08:11:00,58.0,58.0,-100.00,ENE,73,3.0,5.0,99,0.09,,,0.96,0.000000,,2013-08-26 14:11:00,
2013-08-26 08:22:00,58.0,58.0,-100.00,ENE,73,3.0,5.0,99,0.09,,,0.96,0.000000,,2013-08-26 14:22:00,
2013-08-26 08:32:00,58.0,58.0,-100.00,ENE,73,3.0,5.0,99,0.09,,,0.96,0.000000,,2013-08-26 14:32:00,
2013-08-26 08:42:00,58.0,58.0,-100.00,ENE,73,3.0,5.0,99,0.09,,,0.96,0.000000,,2013-08-26 14:42:00,
2013-08-26 08:44:00,58.0,57.0,-100.00,East,84,4.0,6.0,96,0.15,,,1.11,1.000000,,2013-08-26 14:44:00,
2013-08-26 09:12:00,58.0,57.0,-100.00,East,84,4.0,6.0,96,0.15,,,1.11,1.000000,,2013-08-26 15:12:00,
2013-08-26 09:22:00,58.0,57.0,-100.00,East,84,4.0,6.0,96,0.15,,,1.11,1.000000,,2013-08-26 15:22:00,
2013-08-26 09:35:00,58.0,57.0,-100.00,East,84,4.0,6.0,96,0.15,,,1.11,1.000000,,2013-08-26 15:35:00,
2013-08-26 09:44:00,59.0,56.0,-100.00,East,91,4.0,9.0,89,0.00,,,1.08,12.000000,,2013-08-26 15:44:00,
2013-08-26 10:17:00,59.0,56.0,-100.00,East,91,4.0,9.0,89,0.00,,,1.08,12.000000,,2013-08-26 16:17:00,
2013-08-26 10:29:00,59.0,56.0,-100.00,East,91,4.0,9.0,89,0.00,,,1.08,12.000000,,2013-08-26 16:29:00,
2013-08-26 10:36:00,59.0,56.0,-100.00,East,91,4.0,9.0,89,0.00,,,1.08,12.000000,,2013-08-26 16:36:00,
2013-08-26 11:43:00,61.0,51.0,-100.00,SE,128,3.0,9.0,69,0.00,,,1.01,117.000000,,2013-08-26 17:43:00,
2013-08-26 12:21:00,73.0,58.0,-100.00,SSE,153,4.0,8.0,60,0.00,,,0.99,185.000000,,2013-08-26 18:21:00,
2013-08-26 12:31:00,73.0,58.0,-100.00,SSE,153,4.0,8.0,60,0.00,,,0.99,185.000000,,2013-08-26 18:31:00,
2013-08-26 12:42:00,73.0,58.0,-100.00,SSE,153,4.0,8.0,60,0.00,,,0.99,185.000000,,2013-08-26 18:42:00,
2013-08-26 13:11:00,74.0,57.0,-100.00,SSE,150,7.0,9.0,55,0.00,,,0.99,818.000000,,2013-08-26 19:11:00,
2013-08-26 13:22:00,74.0,57.0,-100.00,SSE,150,7.0,9.0,55,0.00,,,0.99,818.000000,,2013-08-26 19:22:00,
2013-08-26 13:32:00,74.0,57.0,-100.00,SSE,150,7.0,9.0,55,0.00,,,0.99,818.000000,,2013-08-26 19:32:00,
2013-08-26 13:42:00,74.0,57.0,-100.00,SSE,150,7.0,9.0,55,0.00,,,0.99,818.000000,,2013-08-26 19:42:00,
2013-08-26 14:11:00,76.0,59.0,-100.00,SSW,202,6.0,13.0,55,0.00,,,0.99,1008.000000,,2013-08-26 20:11:00,
2013-08-26 14:21:00,76.0,59.0,-100.00,SSW,202,6.0,13.0,55,0.00,,,0.99,1008.000000,,2013-08-26 20:21:00,
2013-08-26 14:32:00,76.0,59.0,-100.00,SSW,202,6.0,13.0,55,0.00,,,0.99,1008.000000,,2013-08-26 20:32:00,
2013-08-26 14:42:00,76.0,59.0,-100.00,SSW,202,6.0,13.0,55,0.00,,,0.99,1008.000000,,2013-08-26 20:42:00,
2013-08-26 14:44:00,79.0,59.0,-100.00,South,189,7.0,13.0,50,0.00,,,0.99,1142.000000,,2013-08-26 20:44:00,
2013-08-26 15:11:00,79.0,59.0,-100.00,South,189,7.0,13.0,50,0.00,,,0.99,1142.000000,,2013-08-26 21:11:00,
2013-08-26 15:22:00,79.0,59.0,-100.00,South,189,7.0,13.0,50,0.00,,,0.99,1142.000000,,2013-08-26 21:22:00,
2013-08-26 15:35:00,79.0,59.0,-100.00,South,189,7.0,13.0,50,0.00,,,0.99,1142.000000,,2013-08-26 21:35:00,
2013-08-26 16:16:00,78.0,57.0,-100.00,SW,230,7.0,11.0,48,0.00,,,0.99,1128.000000,,2013-08-26 22:16:00,
2013-08-26 16:26:00,78.0,57.0,-100.00,SW,230,7.0,11.0,48,0.00,,,0.99,1128.000000,,2013-08-26 22:26:00,
2013-08-26 16:34:00,78.0,57.0,-100.00,SW,230,7.0,11.0,48,0.00,,,0.99,1128.000000,,2013-08-26 22:34:00,
2013-08-26 16:42:00,78.0,57.0,-100.00,SW,230,7.0,11.0,48,0.00,,,0.99,1128.000000,,2013-08-26 22:42:00,
2013-08-26 17:12:00,79.0,56.0,-100.00,SW,235,6.0,14.0,45,0.00,,,0.96,1128.000000,,2013-08-26 23:12:00,
2013-08-26 17:21:00,79.0,56.0,-100.00,SW,235,6.0,14.0,45,0.00,,,0.96,1128.000000,,2013-08-26 23:21:00,
2013-08-26 17:34:00,79.0,56.0,-100.00,SW,235,6.0,14.0,45,0.00,,,0.96,1128.000000,,2013-08-26 23:34:00,
2013-08-26 17:42:00,79.0,56.0,-100.00,SW,235,6.0,14.0,45,0.00,,,0.96,1128.000000,,2013-08-26 23:42:00,
2013-08-26 18:11:00,78.0,56.0,-100.00,West,266,3.0,14.0,47,0.00,,,0.96,886.000000,,2013-08-27 00:11:00,
2013-08-26 18:21:00,78.0,56.0,-100.00,West,266,3.0,14.0,47,0.00,,,0.96,886.000000,,2013-08-27 00:21:00,
2013-08-26 18:32:00,78.0,56.0,-100.00,West,266,3.0,14.0,47,0.00,,,0.96,886.000000,,2013-08-27 00:32:00,
2013-08-26 18:42:00,78.0,56.0,-100.00,West,266,3.0,14.0,47,0.00,,,0.96,886.000000,,2013-08-27 00:42:00,
2013-08-26 19:12:00,79.0,56.0,-100.00,WSW,250,4.0,11.0,45,0.00,,,0.96,675.000000,,2013-08-27 01:12:00,
2013-08-26 19:21:00,79.0,56.0,-100.00,WSW,250,4.0,11.0,45,0.00,,,0.96,675.000000,,2013-08-27 01:21:00,
2013-08-26 19:32:00,79.0,56.0,-100.00,WSW,250,4.0,11.0,45,0.00,,,0.96,675.000000,,2013-08-27 01:32:00,
2013-08-26 19:42:00,79.0,56.0,-100.00,WSW,250,4.0,11.0,45,0.00,,,0.96,675.000000,,2013-08-27 01:42:00,
2013-08-26 20:12:00,78.0,62.0,-100.00,NW,316,4.0,9.0,57,0.00,,,0.93,500.000000,,2013-08-27 02:12:00,
2013-08-26 20:21:00,78.0,62.0,-100.00,NW,316,4.0,9.0,57,0.00,,,0.93,500.000000,,2013-08-27 02:21:00,
2013-08-26 20:32:00,78.0,62.0,-100.00,NW,316,4.0,9.0,57,0.00,,,0.93,500.000000,,2013-08-27 02:32:00,
2013-08-26 20:42:00,78.0,62.0,-100.00,NW,316,4.0,9.0,57,0.00,,,0.93,500.000000,,2013-08-27 02:42:00,
2013-08-26 20:44:00,71.0,59.0,-100.00,NW,325,4.0,8.0,66,0.00,,,0.83,287.000000,,2013-08-27 02:44:00,
2013-08-26 21:12:00,71.0,59.0,-100.00,NW,325,4.0,8.0,66,0.00,,,0.83,287.000000,,2013-08-27 03:12:00,
2013-08-26 21:22:00,71.0,59.0,-100.00,NW,325,4.0,8.0,66,0.00,,,0.83,287.000000,,2013-08-27 03:22:00,
2013-08-26 21:36:00,71.0,59.0,-100.00,NW,325,4.0,8.0,66,0.00,,,0.83,287.000000,,2013-08-27 03:36:00,
2013-08-26 21:44:00,68.0,57.0,-100.00,NNE,28,2.0,7.0,67,0.00,,,0.74,90.000000,,2013-08-27 03:44:00,
2013-08-26 22:18:00,68.0,57.0,-100.00,NNE,28,2.0,7.0,67,0.00,,,0.74,90.000000,,2013-08-27 04:18:00,
2013-08-26 22:29:00,68.0,57.0,-100.00,NNE,28,2.0,7.0,67,0.00,,,0.74,90.000000,,2013-08-27 04:29:00,
2013-08-26 22:38:00,68.0,57.0,-100.00,NNE,28,2.0,7.0,67,0.00,,,0.74,90.000000,,2013-08-27 04:38:00,
2013-08-26 23:13:00,69.0,58.0,-100.00,NE,40,4.0,8.0,69,0.00,,,0.73,0.000000,,2013-08-27 05:13:00,
2013-08-26 23:23:00,69.0,58.0,-100.00,NE,40,4.0,8.0,69,0.00,,,0.73,0.000000,,2013-08-27 05:23:00,
2013-08-26 23:34:00,69.0,58.0,-100.00,NE,40,4.0,8.0,69,0.00,,,0.73,0.000000,,2013-08-27 05:34:00,
2013-08-26 23:43:00,69.0,58.0,-100.00,NE,40,4.0,8.0,69,0.00,,,0.73,0.000000,,2013-08-27 05:43:00,